Torna al catalogo

GB 2

AttivoComunicazioniLEO
NORAD 14144·PAYLOAD·🇺🇸 United States

Lanciato Jun 9, 1983 da Vandenberg Space Force Base

Loading…

Prossimi Passaggi (prossime 24 ore)

TLE

AggiornatoSource: Space-Track

Epoca: Sep 14, 2026, 13:48 UTC

1 14144U 83056D   26257.57547884  .00002828  00000-0  38426-3 0  9992
2 14144  63.3164  11.4171 0714864 133.3644 232.9282 13.79065725368277

Traccia GB 2 in tempo reale con AllMySat

Download on the App Store